Regional Weather Roundup
Issued by NWS

Home | Current Version | Previous Version | Graphics & Text | Print | Product List | Glossary On
Versions: 1 2 3 4 5 6 7 8 9 10 11 12 13 14 15 16 17 18 19 20 21 22 23 24 25 26 27 28 29 30 31 32 33 34 35 36 37 38 39 40 41 42 43 44 45 46 47 48 49 50
000
ASUS43 KFSD 042202
RWRSD

WEATHER ROUNDUP FOR SOUTH DAKOTA
NATIONAL WEATHER SERVICE SIOUX FALLS SD
400 PM CST SUN DEC 04 2016

NOTE: "FAIR" INDICATES FEW OR NO CLOUDS BELOW 12,000 FEET WITH NO
SIGNIFICANT WEATHER AND/OR OBSTRUCTIONS TO VISIBILITY.


SDZ001>005-009-010-012>017-042300-
NORTHWEST AND NORTH CENTRAL SOUTH DAKOTA

CITY           SKY/WX    TMP DP  RH WIND       PRES   REMARKS
BUFFALO          N/A     39  25  57 SW9       29.59F
FAITH            N/A     35  27  72 S10       29.70F WCI  27
MOBRIDGE       CLEAR     36  25  64 S6        29.70F
$$

SDZ012>016-024>037-041>051-057-063-072>074-042300-
SOUTHWEST AND SOUTH CENTRAL SOUTH DAKOTA

CITY           SKY/WX    TMP DP  RH WIND       PRES   REMARKS
RAPID CTY ARPT CLEAR     43  12  28 SE3       29.69F
PIERRE         CLEAR     39  28  64 CALM      29.75F
CUSTER         CLOUDY    34  14  43 W8        29.68F WCI  27
ELLSWORTH AFB  MOCLDY    45  13  27 N3        29.68F
PHILIP         CLEAR     46  23  40 SW7       29.74F
PINE RIDGE     SUNNY     41  25  53 VRB3      29.74F
SPEARFISH      FAIR      41  14  33 SW7G17    29.68S
WINNER         FAIR      47  25  42 SW8       29.79F
$$

SDZ004>011-016>023-039-040-042300-
NORTHEAST SOUTH DAKOTA

CITY           SKY/WX    TMP DP  RH WIND       PRES   REMARKS
ABERDEEN       CLEAR     38  29  70 W10       29.75S
WATERTOWN      CLEAR     35  29  78 W12       29.75R WCI  27
SISSETON         N/A     38  31  76 W9        29.72S
$$

SDZ017-020-022-023-036>040-048>070-042300-
SOUTHEAST SOUTH DAKOTA

CITY           SKY/WX    TMP DP  RH WIND       PRES   REMARKS
SIOUX FALLS    PTCLDY    43  33  68 W7        29.80S
HURON          CLEAR     41  31  67 W8        29.79S
MITCHELL       CLEAR     43  31  62 W10       29.81S
YANKTON        CLEAR     46  28  49 W8        29.83R
$$

ABBREVIATIONS USED IN REMARKS
   TC - TEMPERATURE IN CELSIUS
  WCI - WIND CHILL INDEX
   HX - HEAT INDEX
  VSB - VISIBILITY




USA.gov is the U.S. government's official web portal to all federal, state and local government web resources and services.